Eelde, Netherlands

7:00 AM CEST on April 27, 2018 (GMT +0200)
Eelde

Weather History for EHGG - January, 2013

Change the Weather History Date:

Wednesday, January 23, 2013

  Actual Average Record
Temperature  
Mean Temperature 16 °F -  
Max Temperature 25 °F 40 °F 50 °F (2008)
Min Temperature 8 °F 29 °F 8 °F (2013)
Degree Days  
Heating Degree Days 48    
Moisture  
Dew Point 17 °F    
Average Humidity 83    
Maximum Humidity 93    
Minimum Humidity 69    
Precipitation  
Precipitation 0.00 in 0.07 in - ()
Sea Level Pressure  
Sea Level Pressure 29.86 in    
Wind  
Wind Speed 6 mph ()    
Max Wind Speed 12 mph    
Max Gust Speed -    
Visibility 5.1 miles    
Events Fog    
Averages and records for this station are not official NWS values.
T = Trace of Precipitation, MM = Missing Value Source: Averaged Metar Reports

Daily Weather History Graph

Daily Weather History Graph

Search for Another Location

Airport or City:

Astronomy

Jan. 23, 2013 Rise Set
Actual Time 8:30 AM CET 5:00 PM CET
Civil Twilight 7:51 AM CET 5:40 PM CET
Nautical Twilight 7:08 AM CET 6:22 PM CET
Astronomical Twilight 6:27 AM CET 7:03 PM CET
Moon 1:50 PM CET (1/23) 5:36 AM CET (1/23)
Length of Visible Light 9h 48m
Length of Day
8h 30m
Waxing Gibbous, 87% of the Moon is Illuminated
Jan 23
Waxing Gibbous
Jan 27
Full
Feb 3
Last Quarter
Feb 10
New
Feb 17
First Quarter

Hourly Weather History & Observations

Time (CET) Temp. Windchill Dew Point Humidity Pressure Visibility Wind Dir Wind Speed Gust Speed Precip Events Conditions
12:25 AM 23.0 °F 15.8 °F 17.6 °F 80% 29.83 in 6.2 mi East 5.8 mph - N/A   Unknown
12:55 AM 23.0 °F 15.8 °F 17.6 °F 80% 29.83 in 6.2 mi East 5.8 mph - N/A   Unknown
1:00 AM 22 °F - 18 °F 78% 29.83 in 6 mi East 4.5 mph - -   Partly Cloudy
1:25 AM 23.0 °F 15.8 °F 17.6 °F 80% 29.83 in 5.6 mi ENE 5.8 mph - N/A   Overcast
1:55 AM 23.0 °F 14.7 °F 17.6 °F 80% 29.83 in 6.2 mi ENE 6.9 mph - N/A   Overcast
2:25 AM 23.0 °F 14.7 °F 17.6 °F 80% 29.83 in 6.2 mi East 6.9 mph - N/A   Overcast
2:55 AM 23.0 °F 14.7 °F 17.6 °F 80% 29.83 in 6.2 mi ENE 6.9 mph - N/A   Overcast
3:25 AM 23.0 °F 13.9 °F 17.6 °F 80% 29.83 in 6.2 mi ENE 8.1 mph - N/A   Overcast
3:55 AM 23.0 °F 13.9 °F 17.6 °F 80% 29.83 in 6.2 mi East 8.1 mph - N/A   Overcast
4:00 AM 22 °F - 18 °F 78% 29.84 in 6 mi ENE 6.7 mph - -   Overcast
4:25 AM 23.0 °F 13.1 °F 17.6 °F 80% 29.83 in 6.2 mi East 9.2 mph - N/A   Overcast
4:55 AM 21.2 °F 10.9 °F 17.6 °F 86% 29.83 in 6.2 mi East 9.2 mph - N/A   Overcast
5:25 AM 21.2 °F 13.6 °F 17.6 °F 86% 29.83 in 6.2 mi ENE 5.8 mph - N/A   Overcast
5:55 AM 21.2 °F 10.9 °F 17.6 °F 86% 29.83 in 6.2 mi East 9.2 mph - N/A   Overcast
6:25 AM 21.2 °F 11.7 °F 17.6 °F 86% 29.83 in 6.2 mi East 8.1 mph - N/A   Overcast
6:55 AM 21.2 °F 11.7 °F 17.6 °F 86% 29.83 in 6.2 mi ENE 8.1 mph - N/A   Overcast
7:00 AM 22 °F - 17 °F 74% 29.85 in 7 mi East 8.9 mph - -   Partly Cloudy
7:25 AM 21.2 °F 10.9 °F 17.6 °F 86% 29.83 in 6.2 mi East 9.2 mph - N/A   Overcast
7:55 AM 21.2 °F 10.9 °F 17.6 °F 86% 29.83 in 6.2 mi East 9.2 mph - N/A   Overcast
8:25 AM 21.2 °F 10.9 °F 17.6 °F 86% 29.83 in 6.2 mi East 9.2 mph - N/A   Overcast
8:55 AM 21.2 °F 11.7 °F 17.6 °F 86% 29.86 in 6.2 mi East 8.1 mph - N/A   Overcast
9:25 AM 23.0 °F 14.7 °F 17.6 °F 80% 29.86 in 6.2 mi East 6.9 mph - N/A   Unknown
9:55 AM 23.0 °F 13.9 °F 17.6 °F 80% 29.86 in 6.2 mi East 8.1 mph - N/A   Unknown
10:00 AM 22 °F - 18 °F 76% 29.88 in 7 mi East 6.7 mph - -   Overcast
10:25 AM 23.0 °F 14.7 °F 17.6 °F 80% 29.86 in 6.2 mi East 6.9 mph - N/A   Unknown
10:55 AM 23.0 °F 13.1 °F 17.6 °F 80% 29.86 in 6.2 mi East 9.2 mph - N/A   Unknown
11:25 AM 24.8 °F 16.1 °F 17.6 °F 74% 29.86 in 6.2 mi East 8.1 mph - N/A   Unknown
11:55 AM 24.8 °F 15.3 °F 17.6 °F 74% 29.86 in 6.2 mi ENE 9.2 mph - N/A   Unknown
12:25 PM 24.8 °F 14.6 °F 17.6 °F 74% 29.86 in 6.2 mi ENE 10.4 mph - N/A   Unknown
12:55 PM 24.8 °F 14.6 °F 19.4 °F 80% 29.86 in 6.2 mi ENE 10.4 mph - N/A   Unknown
1:00 PM 25 °F - 19 °F 69% 29.89 in 8 mi East 8.9 mph - -   Partly Cloudy
1:25 PM 24.8 °F 14.6 °F 19.4 °F 80% 29.86 in 6.2 mi East 10.4 mph - N/A   Unknown
1:55 PM 24.8 °F 14.6 °F 19.4 °F 80% 29.86 in 6.2 mi ENE 10.4 mph - N/A   Unknown
2:25 PM 24.8 °F 15.3 °F 19.4 °F 80% 29.86 in 6.2 mi NE 9.2 mph - N/A   Unknown
2:55 PM 24.8 °F 15.3 °F 19.4 °F 80% 29.86 in 6.2 mi ENE 9.2 mph - N/A   Unknown
3:25 PM 24.8 °F 14.0 °F 19.4 °F 80% 29.86 in 6.2 mi ENE 11.5 mph - N/A   Unknown
3:55 PM 24.8 °F 14.6 °F 19.4 °F 80% 29.89 in 6.2 mi ENE 10.4 mph - N/A   Unknown
4:00 PM 24 °F - 20 °F 76% 29.89 in 7 mi ENE 8.9 mph - -  
4:25 PM 23.0 °F 13.1 °F 19.4 °F 86% 29.89 in 6.2 mi ENE 9.2 mph - N/A   Unknown
4:55 PM 23.0 °F 13.9 °F 19.4 °F 86% 29.89 in 6.2 mi ENE 8.1 mph - N/A   Unknown
5:25 PM 21.2 °F 12.6 °F 17.6 °F 86% 29.89 in 5.6 mi ENE 6.9 mph - N/A   Unknown
5:55 PM 19.4 °F 11.5 °F 17.6 °F 93% 29.89 in 5.6 mi ENE 5.8 mph - N/A   Unknown
6:25 PM 19.4 °F 12.8 °F 17.6 °F 93% 29.89 in 4.3 mi ENE 4.6 mph - N/A   Unknown
6:55 PM 17.6 °F 12.3 °F 15.8 °F 93% 29.89 in 3.1 mi NE 3.5 mph - N/A   Mist
7:00 PM 18 °F - 16 °F 88% 29.91 in 2 mi ENE 4.5 mph - -   Mist
7:25 PM 17.6 °F - 15.8 °F 93% 29.89 in 1.3 mi ENE 2.3 mph - N/A   Mist
7:55 PM 14.0 °F - 12.2 °F 93% 29.89 in 0.2 mi NE 1.2 mph - N/A Fog Light Freezing Fog
8:25 PM 14.0 °F - 10.4 °F 86% 29.89 in 0.2 mi NNE 1.2 mph - N/A Fog Light Freezing Fog
8:55 PM 14.0 °F - 10.4 °F 86% 29.89 in 0.2 mi NE 2.3 mph - N/A Fog Light Freezing Fog
9:25 PM 12.2 °F - 8.6 °F 85% 29.89 in 1.4 mi NNE 2.3 mph - N/A   Mist
9:55 PM 12.2 °F 6.1 °F 8.6 °F 85% 29.89 in 0.6 mi NNE 3.5 mph - N/A   Partly Cloudy
10:00 PM 15 °F - 13 °F 85% 29.92 in 0 mi NE 4.5 mph - - Fog Fog
10:25 PM 14.0 °F 6.5 °F 10.4 °F 86% 29.92 in - NNE 4.6 mph - N/A   Mist
10:55 PM 8.6 °F - 6.8 °F 92% 29.92 in 1.7 mi ENE 2.3 mph - N/A   Mist
11:25 PM 15.8 °F - 14.0 °F 93% 29.92 in 0.6 mi Variable 2.3 mph - N/A   Scattered Clouds
11:55 PM 12.2 °F - 10.4 °F 92% 29.92 in 0.5 mi ENE 2.3 mph - N/A Fog Light Freezing Fog